Home   Weather   Judenburg   Past weeks

Flag for Austria Past Weather in Judenburg, Styria, Austria — Yesterday and Last 2 Weeks

Now
43 °F

Clear.


Feels Like: 43 °F
Forecast: 45 / 60 °F
Wind: 1 mph from East

Location: Zeltweg

Current Time: Oct 1, 2016 at 5:26:49 AM

Latest Report: Oct 1, 2016 at 4:50 AM


Visibility: 12 mi

Pressure: 30.04 "Hg (27.44 "Hg at 739m altitude)

Humidity: 93%

Dew Point: 41 °F

Location of JudenburgLocation

Past Weather in Judenburg — Graph

°F

Judenburg Temperature Yesterday

Maximum temperature yesterday: 73 °F (at 2:20 PM)
Minimum temperature yesterday: 43 °F (at 5:50 AM)
Average temperature yesterday: 59 °F

High & Low Weather Summary for the Past Weeks

 TemperatureHumidityPressure
High77 °F (Sep 16, 2:20 PM)100% (Sep 17, 4:50 AM)30.48 "Hg (Sep 17, 4:50 AM)
Low37 °F (Sep 22, 4:50 AM)33% (Sep 24, 3:50 PM)29.83 "Hg (Sep 17, 7:50 AM)
Average56 °F73%30.12 "Hg
* Reported Sep 15 10:50 PM — Sep 30 10:50 PM, Judenburg, Weather by CustomWeather, © 2016

Note: Actual official high and low records may vary slightly from our data, if they occured in-between our weather recording intervals... More about our weather records

Advertising

Judenburg Weather History for the Previous 24 Hours

Scroll right to see more
 ConditionsComfort  
Time TempWeatherWind HumidityBarometerVisibility
10:50 PM
Fri, Sep 30
52 °FPassing clouds.1 mph88%30.07 "Hg12 mi
9:50 PM54 °FPassing clouds.2 mph82%30.07 "Hg19 mi
8:50 PM55 °FPassing clouds.1 mph77%30.07 "Hg19 mi
7:50 PM61 °FPassing clouds.5 mph68%30.07 "Hg19 mi
6:50 PM61 °FPassing clouds.5 mph72%30.04 "Hg19 mi
5:50 PM68 °FScattered clouds.3 mph49%30.04 "Hg25 mi
4:50 PM70 °FScattered clouds.5 mph43%30.04 "Hg25 mi
3:50 PM72 °FScattered clouds.6 mph41%30.07 "Hg25 mi
3:20 PM73 °FScattered clouds.7 mph36%30.07 "Hg25 mi
2:50 PM73 °FPassing clouds.3 mph36%30.07 "Hg25 mi
2:20 PM73 °FPassing clouds.2 mph38%30.07 "Hg25 mi
1:50 PM72 °FPassing clouds.2 mph44%30.09 "Hg25 mi
1:20 PM70 °FPassing clouds.1 mph46%30.09 "Hg25 mi
12:50 PM68 °FPassing clouds.1 mph53%30.12 "Hg25 mi
12:20 PM66 °FPassing clouds.1 mph56%30.12 "Hg25 mi
11:50 AM63 °FPassing clouds.1 mph64%30.12 "Hg25 mi
11:20 AM61 °FPassing clouds.1 mph68%30.15 "Hg12 mi
10:50 AM57 °FPassing clouds.1 mph77%30.15 "Hg12 mi
10:20 AM57 °FPassing clouds.1 mph77%30.15 "Hg12 mi
9:50 AM54 °FPassing clouds.1 mph82%30.15 "Hg12 mi
9:20 AM52 °FPassing clouds.1 mph88%30.15 "Hg9 mi
8:50 AM48 °FLight fog.1 mph94%30.15 "Hg3 mi
8:20 AM46 °FSmoke.No wind93%30.15 "Hg1 mi
7:50 AM43 °FSleet. Cloudy.1 mph100%30.15 "Hg1 mi
7:20 AM43 °FFog.2 mph100%30.15 "Hg0 mi
6:50 AM43 °FFog.No wind100%30.15 "Hg0 mi
5:50 AM43 °FFog.No wind100%30.12 "Hg0 mi
Weather by CustomWeather, © 2016

See weather overviewHow to use our weather pages